Date,TemperatureHighF,TemperatureAvgF,TemperatureLowF,DewpointHighF,DewpointAvgF,DewpointLowF,HumidityHigh,HumidityAvg,HumidityLow,PressureMaxIn,PressureMinIn,WindSpeedMaxMPH,WindSpeedAvgMPH,GustSpeedMaxMPH,PrecipitationSumIn
2013-12-1,55.3,48.6,43.7,40.8,36.6,30.9,83,64,51,30.07,29.80,9,0,9,0.00
2013-12-2,60.4,51.2,44.2,49.7,44.9,39.2,91,79,65,29.80,29.58,9,0,9,0.00
2013-12-3,63.7,54.6,46.5,54.8,50.5,44.8,96,87,65,29.65,29.57,11,0,11,0.00
2013-12-4,74.1,65.5,53.7,62.4,59.7,52.3,96,82,64,29.66,29.52,19,2,21,0.00
2013-12-5,68.8,43.4,30.2,63.5,39.3,27.4,92,86,76,30.09,29.65,18,4,18,0.17
2013-12-6,30.6,26.0,22.2,28.4,23.4,19.1,92,90,88,30.37,30.02,17,2,17,0.01
2013-12-7,25.1,20.4,15.6,19.7,16.1,10.8,88,83,78,30.53,30.27,17,4,17,0.00
2013-12-8,33.1,29.6,22.1,31.6,27.6,19.1,94,92,88,30.27,29.92,13,2,13,0.01
2013-12-9,31.3,28.7,25.0,29.8,24.6,16.7,94,85,70,30.19,30.01,16,2,16,0.00
2013-12-10,34.4,26.7,21.8,24.5,20.5,16.8,90,78,63,30.30,30.12,14,1,14,0.04
2013-12-11,38.9,27.8,18.8,29.9,22.2,14.0,93,80,63,30.51,30.27,19,2,19,0.15
2013-12-12,34.2,23.1,12.4,18.6,14.1,8.1,85,69,45,30.53,30.27,10,0,10,0.02
2013-12-13,41.8,31.4,17.7,33.1,23.5,14.5,90,74,53,30.27,29.85,11,0,12,0.28
2013-12-14,40.2,36.4,31.9,38.9,34.1,28.7,95,91,85,29.98,29.67,18,3,18,0.78
2013-12-15,31.9,30.7,29.3,28.7,26.5,24.8,90,84,80,30.13,29.98,16,3,16,0.00
2013-12-16,53.5,42.5,30.8,38.8,34.7,27.9,89,75,55,30.05,29.93,17,3,17,0.01
2013-12-17,46.2,37.6,26.7,37.9,31.4,22.9,90,79,61,30.19,29.97,12,1,12,0.00
2013-12-18,52.1,38.6,22.0,32.8,25.9,19.5,92,64,35,30.24,29.97,17,2,17,0.00
2013-12-19,60.7,52.5,43.0,50.0,43.1,32.6,79,71,57,30.01,29.81,21,4,21,0.00
2013-12-20,64.3,61.1,56.5,61.7,56.5,49.8,94,85,73,29.81,29.68,22,4,22,0.13
2013-12-21,71.6,63.3,45.7,64.6,60.6,43.9,97,91,77,29.68,29.34,43,4,43,2.62
2013-12-22,51.4,43.6,34.4,47.9,41.2,30.6,96,91,83,30.10,29.50,19,3,19,0.01
2013-12-23,34.4,31.2,26.5,31.7,25.1,19.9,92,78,69,30.39,30.10,12,2,17,0.00
2013-12-24,26.6,22.1,16.7,20.3,13.5,7.7,82,70,55,30.54,30.33,16,2,16,0.00
2013-12-25,42.9,31.1,17.4,28.4,22.0,13.7,87,70,52,30.33,30.18,14,1,14,0.00
2013-12-26,44.9,33.3,23.2,31.1,26.5,21.1,94,77,51,30.33,30.19,11,0,11,0.00
2013-12-27,52.9,36.3,22.5,36.2,28.7,20.3,92,75,52,30.35,30.23,10,0,10,0.00
2013-12-28,48.6,38.7,26.9,37.3,31.1,24.0,91,75,54,30.23,29.86,8,0,8,0.06
2013-12-29,50.5,39.1,27.6,41.7,35.0,21.6,95,85,70,30.10,29.81,19,3,19,0.19
2013-12-30,30.8,25.5,20.6,21.5,18.8,16.7,86,76,63,30.22,30.10,15,1,15,0.00
2013-12-31,43.4,31.3,21.2,27.7,22.8,16.9,89,71,50,30.34,30.18,9,1,9,0.00